timestamp,surface_pressure_avg,surface_temp_avg,battery_voltage,lat,long
2020-06-29 00:09:01+00:00,209.0765,13.0,13.05,47.84626,-54.09684
2020-06-29 00:19:01+00:00,207.4464,13.1,12.81,47.84626,-54.09684
2020-06-29 00:29:01+00:00,209.3298,13.26,12.81,47.84626,-54.09684
2020-06-29 00:39:01+00:00,208.2747,13.46,12.81,47.84626,-54.09684
2020-06-29 00:49:01+00:00,206.7097,13.61,12.81,47.84626,-54.09684
2020-06-29 00:59:01+00:00,207.5731,13.7,12.81,47.84626,-54.09684
2020-06-29 01:09:01+00:00,208.1898,13.8,12.81,47.84626,-54.09684
2020-06-29 01:19:01+00:00,206.2831,13.9,12.73,47.84626,-54.09684
2020-06-29 01:29:01+00:00,207.0131,13.99,12.73,47.84626,-54.09684
2020-06-29 01:39:01+00:00,211.4632,14.07,12.73,47.84626,-54.09684
2020-06-29 01:49:01+00:00,213.7981,14.1,12.73,47.84626,-54.09684
2020-06-29 01:59:01+00:00,214.6698,14.11,12.73,47.84626,-54.09684
2020-06-29 02:09:01+00:00,220.3081,14.17,12.73,47.84626,-54.09684
2020-06-29 02:19:01+00:00,228.6797,14.17,12.73,47.84626,-54.09684
2020-06-29 02:29:01+00:00,233.1364,14.19,12.73,47.84626,-54.09684
2020-06-29 02:39:01+00:00,239.7165,14.2,12.73,47.84626,-54.09684
2020-06-29 02:49:01+00:00,247.6531,14.2,12.73,47.84626,-54.09684
2020-06-29 02:59:01+00:00,253.4498,14.2,12.73,47.84626,-54.09684
2020-06-29 03:09:01+00:00,261.4413,14.2,12.73,47.84626,-54.09684
2020-06-29 03:19:01+00:00,272.8748,14.19,12.73,47.84626,-54.09684
2020-06-29 03:29:01+00:00,278.8547,14.14,12.73,47.84626,-54.09684
2020-06-29 03:39:01+00:00,283.2814,14.15,12.73,47.84626,-54.09684
2020-06-29 03:49:01+00:00,292.433,14.1,12.73,47.84626,-54.09684
2020-06-29 03:59:01+00:00,301.4664,14.1,12.73,47.84626,-54.09684
2020-06-29 04:09:01+00:00,303.3947,14.1,12.73,47.84626,-54.09684
2020-06-29 04:19:01+00:00,305.6564,14.15,12.73,47.84626,-54.09684
2020-06-29 04:29:01+00:00,309.6514,14.19,12.73,47.84626,-54.09684
2020-06-29 04:39:01+00:00,315.3831,14.16,12.73,47.84626,-54.09684
2020-06-29 04:49:01+00:00,316.2064,14.16,12.73,47.84626,-54.09684
2020-06-29 04:59:01+00:00,317.9996,14.15,12.73,47.84626,-54.09684
2020-06-29 05:09:01+00:00,320.2063,14.0,12.73,47.84626,-54.09684
2020-06-29 05:19:01+00:00,320.8214,14.0,12.73,47.84626,-54.09684
2020-06-29 05:29:01+00:00,323.2847,14.03,12.73,47.84626,-54.09684
2020-06-29 05:39:01+00:00,327.1597,14.0,12.73,47.84626,-54.09684
2020-06-29 05:49:01+00:00,329.0581,14.04,12.73,47.84626,-54.09684
2020-06-29 05:59:01+00:00,329.9646,14.09,12.73,47.84626,-54.09684
2020-06-29 06:09:01+00:00,332.2229,14.1,12.73,47.84626,-54.09684
2020-06-29 06:19:01+00:00,332.0096,14.1,12.65,47.84626,-54.09684
2020-06-29 06:29:01+00:00,327.563,14.1,12.65,47.84626,-54.09684
2020-06-29 06:39:01+00:00,327.8331,14.1,12.65,47.84626,-54.09684
2020-06-29 06:49:01+00:00,328.2063,14.1,12.65,47.84626,-54.09684
2020-06-29 06:59:01+00:00,323.3847,14.12,12.65,47.84626,-54.09684
2020-06-29 07:09:01+00:00,320.248,14.2,12.65,47.84626,-54.09684
2020-06-29 07:19:01+00:00,322.083,14.2,12.65,47.84626,-54.09684
2020-06-29 07:29:01+00:00,316.3763,14.2,12.65,47.84626,-54.09684
2020-06-29 07:39:01+00:00,306.3948,14.24,12.65,47.84626,-54.09684
2020-06-29 07:49:01+00:00,303.9147,14.29,12.65,47.84626,-54.09684
2020-06-29 07:59:01+00:00,303.5614,14.2,12.65,47.84626,-54.09684
2020-06-29 08:09:01+00:00,292.8397,14.19,12.65,47.84626,-54.09684
2020-06-29 08:19:01+00:00,282.2097,14.28,12.65,47.84626,-54.09684
2020-06-29 08:29:01+00:00,277.0598,14.2,12.65,47.84626,-54.09684
2020-06-29 08:39:01+00:00,274.9698,14.1,12.65,47.84626,-54.09684
2020-06-29 08:49:01+00:00,265.813,14.1,12.65,47.84626,-54.09684
2020-06-29 08:59:01+00:00,259.6531,14.2,12.65,47.84626,-54.09684
2020-06-29 09:09:01+00:00,255.2731,14.2,12.65,47.84626,-54.09684
2020-06-29 09:19:01+00:00,249.7464,14.24,12.65,47.84626,-54.09684
2020-06-29 09:29:01+00:00,239.8581,14.26,12.65,47.84626,-54.09684
2020-06-29 09:39:01+00:00,232.8865,14.28,12.65,47.84626,-54.09684
2020-06-29 09:49:01+00:00,227.0497,14.3,12.65,47.84626,-54.09684
2020-06-29 09:59:01+00:00,219.0715,14.3,12.65,47.84626,-54.09684
2020-06-29 10:09:01+00:00,213.3315,14.3,12.65,47.84626,-54.09684
2020-06-29 10:19:01+00:00,211.6597,14.3,12.65,47.84626,-54.09684
2020-06-29 10:29:01+00:00,208.7948,14.3,12.65,47.84626,-54.09684
2020-06-29 10:39:01+00:00,205.2931,14.3,12.65,47.84626,-54.09684
2020-06-29 10:49:01+00:00,203.9148,14.3,12.65,47.84626,-54.09684
2020-06-29 10:59:01+00:00,202.3531,14.3,12.65,47.84626,-54.09684
2020-06-29 11:09:01+00:00,198.7264,14.3,12.65,47.84626,-54.09684
2020-06-29 11:19:01+00:00,198.2481,14.3,12.81,47.84626,-54.09684
2020-06-29 11:29:01+00:00,199.6414,14.3,12.81,47.84626,-54.09684
2020-06-29 11:39:01+00:00,197.8365,14.3,12.81,47.84626,-54.09684
2020-06-29 11:49:01+00:00,195.5098,14.31,12.81,47.84626,-54.09684
2020-06-29 11:59:01+00:00,194.7681,14.37,12.81,47.84626,-54.09684
2020-06-29 12:09:01+00:00,198.7598,14.38,12.81,47.84626,-54.09684
2020-06-29 12:19:01+00:00,198.4382,14.39,13.05,47.84626,-54.09684
2020-06-29 12:29:01+00:00,196.1181,14.4,13.05,47.84626,-54.09684
2020-06-29 12:39:01+00:00,199.3065,14.4,13.05,47.84626,-54.09684
2020-06-29 12:49:01+00:00,201.9781,14.4,13.05,47.84626,-54.09684
2020-06-29 12:59:01+00:00,200.1214,14.45,13.05,47.84626,-54.09684
2020-06-29 13:09:01+00:00,198.6014,14.5,13.05,47.84626,-54.09684
2020-06-29 13:19:01+00:00,201.1198,14.5,13.13,47.84626,-54.09684
2020-06-29 13:29:01+00:00,203.7097,14.5,13.13,47.84626,-54.09684
2020-06-29 13:39:01+00:00,203.6131,14.5,13.13,47.84626,-54.09684
2020-06-29 13:49:01+00:00,202.3031,14.5,13.13,47.84626,-54.09684
2020-06-29 13:59:01+00:00,204.5565,14.53,13.13,47.84626,-54.09684
2020-06-29 14:09:01+00:00,209.1898,14.5,13.13,47.84626,-54.09684
2020-06-29 14:19:01+00:00,212.4031,14.5,13.21,47.84626,-54.09684
2020-06-29 14:29:01+00:00,216.3531,14.52,13.21,47.84626,-54.09684
2020-06-29 14:39:01+00:00,222.2631,14.5,13.21,47.84626,-54.09684
2020-06-29 14:49:01+00:00,227.3881,14.5,13.21,47.84626,-54.09684
2020-06-29 14:59:01+00:00,232.2164,14.52,13.21,47.84626,-54.09684
2020-06-29 15:09:01+00:00,237.8514,14.56,13.21,47.84626,-54.09684
2020-06-29 15:19:01+00:00,245.0065,14.58,13.92,47.84626,-54.09684
2020-06-29 15:29:01+00:00,251.3947,14.58,13.92,47.84626,-54.09684
2020-06-29 15:39:01+00:00,257.1614,14.58,13.92,47.84626,-54.09684
2020-06-29 15:49:01+00:00,260.2431,14.59,13.92,47.84626,-54.09684
2020-06-29 15:59:01+00:00,266.6931,14.6,13.92,47.84626,-54.09684
2020-06-29 16:09:01+00:00,273.8047,14.6,13.92,47.84626,-54.09684
2020-06-29 16:19:01+00:00,282.0298,14.59,14.16,47.84626,-54.09684
2020-06-29 16:29:01+00:00,287.7513,14.59,14.16,47.84626,-54.09684
2020-06-29 16:39:01+00:00,293.7196,14.59,14.16,47.84626,-54.09684
2020-06-29 16:49:01+00:00,300.7712,14.6,14.16,47.84626,-54.09684
2020-06-29 16:59:01+00:00,306.9347,14.6,14.16,47.84626,-54.09684
2020-06-29 17:09:01+00:00,309.8146,14.6,14.16,47.84626,-54.09684
2020-06-29 17:19:01+00:00,310.868,14.5,14.08,47.84626,-54.09684
2020-06-29 17:29:01+00:00,310.7798,14.5,14.08,47.84626,-54.09684
2020-06-29 17:39:01+00:00,314.193,14.5,14.08,47.84626,-54.09684
2020-06-29 17:49:01+00:00,316.8996,14.5,14.08,47.84626,-54.09684
2020-06-29 17:59:01+00:00,315.7413,14.4,14.08,47.84626,-54.09684
2020-06-29 18:09:01+00:00,319.4829,14.4,14.08,47.84626,-54.09684
2020-06-29 18:19:01+00:00,327.7697,14.3,13.92,47.84626,-54.09684
2020-06-29 18:29:01+00:00,331.5696,14.37,13.92,47.84626,-54.09684
2020-06-29 18:39:01+00:00,328.593,14.4,13.92,47.84626,-54.09684
2020-06-29 18:49:01+00:00,331.0312,14.4,13.92,47.84626,-54.09684
2020-06-29 18:59:01+00:00,333.9996,14.4,13.92,47.84626,-54.09684
2020-06-29 19:09:01+00:00,331.093,14.49,13.92,47.84626,-54.09684
2020-06-29 19:19:01+00:00,330.8413,14.5,13.92,47.84626,-54.09684
2020-06-29 19:29:01+00:00,329.978,14.05,13.92,47.84626,-54.09684
2020-06-29 19:39:01+00:00,327.373,14.26,13.92,47.84626,-54.09684
2020-06-29 19:49:01+00:00,321.1646,14.5,13.92,47.84626,-54.09684
2020-06-29 19:59:01+00:00,318.4813,14.58,13.92,47.84626,-54.09684
2020-06-29 20:09:01+00:00,317.6246,14.6,13.92,47.84626,-54.09684
2020-06-29 20:19:01+00:00,312.1329,14.6,13.76,47.84626,-54.09684
2020-06-29 20:29:01+00:00,304.2197,14.64,13.76,47.84626,-54.09684
2020-06-29 20:39:01+00:00,296.8047,14.67,13.76,47.84626,-54.09684
2020-06-29 20:49:01+00:00,290.6346,14.69,13.76,47.84626,-54.09684
2020-06-29 20:59:01+00:00,283.3513,14.7,13.76,47.84626,-54.09684
2020-06-29 21:09:01+00:00,275.0081,14.7,13.76,47.84626,-54.09684
2020-06-29 21:19:01+00:00,268.1231,14.7,13.68,47.84626,-54.09684
2020-06-29 21:29:01+00:00,261.5781,14.7,13.68,47.84626,-54.09684
2020-06-29 21:39:01+00:00,255.6181,14.7,13.68,47.84626,-54.09684
2020-06-29 21:49:01+00:00,249.2697,14.7,13.68,47.84626,-54.09684
2020-06-29 21:59:01+00:00,241.4747,14.7,13.68,47.84626,-54.09684
2020-06-29 22:09:01+00:00,234.5031,14.74,13.68,47.84626,-54.09684
2020-06-29 22:19:01+00:00,231.7764,14.78,13.29,47.84626,-54.09684
2020-06-29 22:29:01+00:00,228.7398,14.8,13.29,47.84626,-54.09684
2020-06-29 22:39:01+00:00,221.8198,14.8,13.29,47.84626,-54.09684
2020-06-29 22:49:01+00:00,213.6698,14.8,13.29,47.84626,-54.09684
2020-06-29 22:59:01+00:00,207.9648,14.8,13.29,47.84626,-54.09684
2020-06-29 23:09:01+00:00,206.2948,14.8,13.29,47.84626,-54.09684
2020-06-29 23:19:01+00:00,206.0065,14.8,12.97,47.84626,-54.09684
2020-06-29 23:29:01+00:00,204.2048,14.8,12.97,47.84626,-54.09684
2020-06-29 23:39:01+00:00,200.8514,14.8,12.97,47.84626,-54.09684
2020-06-29 23:49:01+00:00,198.6198,14.86,12.97,47.84626,-54.09684
2020-06-29 23:59:01+00:00,197.7031,14.9,12.97,47.84626,-54.09684
